Regional Weather Roundup
Issued by NWS

Home | Current Version | Previous Version | Text Only | Print | Product List | Glossary On
Versions: 1 2 3 4 5 6 7 8 9 10 11 12 13 14 15 16 17 18 19 20 21 22 23 24 25 26 27 28 29 30 31 32 33 34 35 36 37 38 39 40 41 42 43 44 45 46 47 48 49 50
000
ASUS43 KFSD 071110
RWRSD

WEATHER ROUNDUP FOR SOUTH DAKOTA
NATIONAL WEATHER SERVICE SIOUX FALLS SD
500 AM CST SUN FEB 07 2016

NOTE: "FAIR" INDICATES FEW OR NO CLOUDS BELOW 12,000 FEET WITH NO
SIGNIFICANT WEATHER AND/OR OBSTRUCTIONS TO VISIBILITY.


SDZ001>005-009-010-012>017-071200-
NORTHWEST AND NORTH CENTRAL SOUTH DAKOTA

CITY           SKY/WX    TMP DP  RH WIND       PRES   REMARKS
BUFFALO          N/A     34  16  47 NW30G41   29.95R WCI  20
FAITH            N/A     31  22  69 W17G26    29.97R WCI  19
MOBRIDGE       MOCLDY    38  26  62 W17G31    29.83F
$$

SDZ012>016-024>037-041>051-057-063-072>074-071200-
SOUTHWEST AND SOUTH CENTRAL SOUTH DAKOTA

CITY           SKY/WX    TMP DP  RH WIND       PRES   REMARKS
RAPID CTY ARPT CLEAR     36  14  40 NW29G40   30.06R
PIERRE         CLOUDY    38  28  67 NW28G36   29.94R
CUSTER         CLOUDY    26  11  52 NW18G30   30.03S WCI  13
ELLSWORTH AFB  CLEAR     36  14  41 NW28G37   30.04S
PHILIP         CLEAR     36  23  59 NW22G31   30.02S
PINE RIDGE     CLOUDY    36  20  52 NW12      30.11R
SPEARFISH      MIX PCPN  32  12  43 NW22G43   30.08R WCI  19
WINNER         FAIR      38  24  57 W22G32    29.99R
$$

SDZ004>011-016>023-039-040-071200-
NORTHEAST SOUTH DAKOTA

CITY           SKY/WX    TMP DP  RH WIND       PRES   REMARKS
ABERDEEN       MOCLDY    38  24  57 W24G33    29.78R
WATERTOWN      CLEAR     32  23  69 W21       29.75R WCI  20
BROOKINGS      CLEAR     35  24  64 W29G38    29.76S WCI  22
SISSETON         N/A     38  24  57 NW31G41   29.66S
$$

SDZ017-020-022-023-036>040-048>070-071200-
SOUTHEAST SOUTH DAKOTA

CITY           SKY/WX    TMP DP  RH WIND       PRES   REMARKS
SIOUX FALLS    CLEAR     35  25  66 W17       29.83S WCI  25
HURON          CLOUDY    36  27  69 W22       29.86S
CHAMBERLAIN    CLOUDY    35  27  72 W22G28    29.95S WCI  23
MITCHELL       CLOUDY    37  27  67 W16       29.91S
YANKTON        CLEAR     37  25  60 W21G26    29.92R
$$

ABBREVIATIONS USED IN REMARKS
   TC - TEMPERATURE IN CELSIUS
  WCI - WIND CHILL INDEX
   HX - HEAT INDEX
  VSB - VISIBILITY




USA.gov is the U.S. government's official web portal to all federal, state and local government web resources and services.